Tracking 18852 objects as of 24-Nov-2017
HD Live streaming from Space Station
objects crossing your sky now

MOLNIYA 3-20

Track MOLNIYA 3-20 now!
MOLNIYA 3-20 is classified as:


NORAD ID: 13875
Int'l Code: 1983-015A
Perigee: 2,288.5 km
Apogee: 38,052.1 km
Inclination: 63.8 °
Period: 717.2 minutes
Semi major axis: 26541 km
RCS: 14.2775 m2 (large)
Launch date: March 11, 1983
Source: Commonwealth of Independent States (former USSR) (CIS)
Launch site: PLESETSK MISSILE AND SPACE COMPLEX (PKMTR)
aabbcc
Your satellite tracking list
Your tracking list is empty




NASA's NSSDC Master Catalog

Two Line Element Set (TLE):
1 13875U 83015A   17326.42901973 -.00000529  00000-0 -90227-1 0  9994
2 13875  63.7712 205.3770 6737349 261.2447 208.3659  2.00779426190292
Source of the keplerian elements: AFSPC